sat.trackr.live / text

‹ back to catalog

STARLINK-34114

NORAD 63905 · 2025-095R

PAYLOAD ACTIVE UNKNOWN

§ Identity

Operator
Country
US
Launch date
2025-05-10
Launch site
AFETR
Launch vehicle
Mass (kg)
RCS (m²)

Purposes: comms

External: N2YO · Heavens-Above · Gunter

§ Orbital elements

Epoch: 2026-05-25T04:37:03.861120Z

Period
94.27 min
Inclination
43.0011°
Eccentricity
0.0000938
Mean motion
15.27591278 rev/d
Perigee alt
482.4 km
Apogee alt
483.7 km
Semi-major
6,861.2 km
B*
5.1848e-4
RAAN
104.5421°
Arg perigee
267.2383°
Mean anomaly
92.8361°
Rev number
5,947

§ Raw data

STARLINK-341141 63905U 25095R   26145.19240580  .00014037  00000+0  51848-3 0  99942 63905  43.0011 104.5421 0000938 267.2383  92.8361 15.27591278 59473

JSON: /api/v1/satellites/63905 · /tle

For live sub-satellite position, see the globe view (requires WebGL).

§ Visibility from observer

Set your observer location to see the next 7 days of passes ≥ 10°. The values pass through the URL so the page stays shareable.

No JS? Fill the form by hand. The geolocation button needs JavaScript.